NI2O Weather Reports


Display with metric or nautical units.
time (UTC)temp
F
wind
direction
speed
MPH
gust
MPH
rain 1hr
in
rain 24hr
in
rain mn
in
humidity
%
barometer
mb
20260505064641 59 205 2.0 4.0 0.00 0.00 0.00 69 1009.8
20260505064154 59 209 1.0 3.0 0.00 0.00 0.00 69 1009.9
20260505063120 59 212 2.0 3.0 0.00 0.00 0.00 68 1009.8
20260505062106 59 197 2.0 3.0 0.00 0.00 0.00 68 1009.8
20260505061052 59 195 2.0 2.0 0.00 0.00 0.00 68 1010.0
20260505060038 59 217 3.0 4.0 0.00 0.00 0.00 67 1009.8
20260505055045 59 161 4.0 6.0 0.00 0.00 0.00 66 1010.0
20260505054012 59 204 2.0 4.0 0.00 0.00 0.00 65 1009.9
20260505052958 60 200 2.0 3.0 0.00 0.00 0.00 64 1010.0
20260505051944 60 196 2.0 4.0 0.00 0.00 0.00 63 1009.9
20260505050931 60 192 5.0 7.0 0.00 0.00 0.00 62 1010.1
20260505040809 62 205 4.0 4.0 0.00 0.00 0.00 55 1009.8
20260505035755 62 186 2.0 3.0 0.00 0.00 0.00 54 1009.7
20260505034742 62 203 3.0 7.0 0.00 0.00 0.00 54 1009.6
20260505033747 62 205 3.0 7.0 0.00 0.00 0.00 53 1009.7
20260505032713 62 198 2.0 8.0 0.00 0.00 0.00 52 1009.9
20260505031659 62 188 3.0 4.0 0.00 0.00 0.00 52 1010.0
20260505030644 63 172 2.0 6.0 0.00 0.00 0.00 51 1009.8
20260505025630 63 182 2.0 8.0 0.00 0.00 0.00 51 1009.7
20260505024617 63 189 3.0 4.0 0.00 0.00 0.00 51 1009.9
20260505023603 63 179 3.0 6.0 0.00 0.00 0.00 50 1010.0
20260505023058 64 198 1.0 3.0 0.00 0.00 0.00 51 1010.2
20260505022039 64 190 2.0 3.0 0.00 0.00 0.00 49 1010.2
20260505021022 64 203 1.0 4.0 0.00 0.00 0.00 49 1010.1
20260505020008 65 181 3.0 4.0 0.00 0.00 0.00 49 1010.2
20260505014954 65 204 4.0 6.0 0.00 0.00 0.00 49 1010.1
20260505013940 65 180 4.0 8.0 0.00 0.00 0.00 48 1010.0
20260505012926 65 179 2.0 4.0 0.00 0.00 0.00 48 1010.0
20260505011913 65 168 2.0 3.0 0.00 0.00 0.00 48 1009.9
20260505010859 65 173 2.0 4.0 0.00 0.00 0.00 47 1009.7
20260505005845 66 215 3.0 4.0 0.00 0.00 0.00 46 1009.8
20260505004831 66 191 2.0 3.0 0.00 0.00 0.00 46 1009.4
20260505003817 66 189 0.0 3.0 0.00 0.00 0.00 45 1009.4
20260505002824 67 183 2.0 3.0 0.00 0.00 0.00 44 1009.3
20260505001749 67 197 1.0 3.0 0.00 0.00 0.00 43 1009.3
20260505000735 68 188 1.0 3.0 0.00 0.00 0.00 42 1009.3
20260504235722 69 188 2.0 3.0 0.00 0.00 0.00 41 1009.2
20260504234708 69 173 6.0 9.0 0.00 0.00 0.00 40 1009.3
20260504233655 70 189 4.0 6.0 0.00 0.00 0.00 39 1009.2
20260504233208 70 195 3.0 4.0 0.00 0.00 0.00 39 1009.4
20260504232134 71 184 2.0 9.0 0.00 0.00 0.00 38 1009.0
20260504231121 71 240 4.0 6.0 0.00 0.00 0.00 38 1009.0
20260504230107 71 216 6.0 7.0 0.00 0.00 0.00 37 1009.3
20260504225053 72 208 3.0 10.0 0.00 0.00 0.00 37 1009.0
20260504224039 71 210 4.0 7.0 0.00 0.00 0.00 37 1009.2
20260504223026 72 179 2.0 7.0 0.00 0.00 0.00 36 1009.2
20260504222032 72 242 4.0 8.0 0.00 0.00 0.00 36 1009.3
20260504220959 72 214 5.0 7.0 0.00 0.00 0.00 35 1009.3
20260504215945 72 182 5.0 13.0 0.00 0.00 0.00 35 1009.3
20260504214952 73 237 3.0 7.0 0.00 0.00 0.00 35 1009.4
20260504213918 72 201 6.0 11.0 0.00 0.00 0.00 35 1009.3
20260504212905 73 197 5.0 9.0 0.00 0.00 0.00 35 1009.3
20260504211850 71 162 4.0 8.0 0.00 0.00 0.00 37 1009.4
20260504210857 72 235 3.0 9.0 0.00 0.00 0.00 36 1009.4
20260504205824 73 204 5.0 13.0 0.00 0.00 0.00 36 1009.2
20260504204810 72 222 5.0 10.0 0.00 0.00 0.00 36 1009.4
20260504203756 73 241 5.0 9.0 0.00 0.00 0.00 35 1009.2
20260504202742 71 209 4.0 7.0 0.00 0.00 0.00 36 1009.5
20260504201728 73 203 7.0 11.0 0.00 0.00 0.00 35 1009.2
20260504200714 72 192 4.0 13.0 0.00 0.00 0.00 35 1009.7
20260504195701 71 235 7.0 13.0 0.00 0.00 0.00 35 1009.5
20260504194707 72 212 4.0 7.0 0.00 0.00 0.00 36 1009.6
20260504193633 70 251 3.0 8.0 0.00 0.00 0.00 36 1009.9
20260504193146 71 244 6.0 8.0 0.00 0.00 0.00 36 1010.0
20260504192112 72 207 8.0 14.0 0.00 0.00 0.00 35 1010.0
20260504191059 72 144 4.0 8.0 0.00 0.00 0.00 36 1010.1
20260504190044 71 220 4.0 7.0 0.00 0.00 0.00 35 1010.4
20260504185031 70 251 7.0 11.0 0.00 0.00 0.00 36 1010.6
20260504184017 72 248 4.0 10.0 0.00 0.00 0.00 35 1010.4
20260504183004 70 216 7.0 15.0 0.00 0.00 0.00 36 1010.9
20260504181949 71 245 6.0 8.0 0.00 0.00 0.00 37 1010.8
20260504180936 70 196 5.0 8.0 0.00 0.00 0.00 35 1010.9
20260504175922 71 244 10.0 13.0 0.00 0.00 0.00 35 1011.2
20260504174909 69 193 4.0 10.0 0.00 0.00 0.00 36 1011.3
20260504173855 70 256 3.0 9.0 0.00 0.00 0.00 35 1011.4
20260504172900 68 230 7.0 9.0 0.00 0.00 0.00 37 1011.5
20260504171827 69 175 6.0 10.0 0.00 0.00 0.00 36 1011.7
20260504170812 68 193 4.0 10.0 0.00 0.00 0.00 36 1011.9
20260504151029 65 237 4.0 10.0 0.00 0.00 0.00 43 1012.9
20260504140907 61 185 2.0 3.0 0.00 0.00 0.00 52 1013.2
20260504130743 57 165 4.0 11.0 0.00 0.00 0.00 62 1013.8
20260504120135 51 207 4.0 6.0 0.00 0.00 0.00 74 1013.9
20260504081633 47 203 1.0 2.0 0.00 0.00 0.00 62 1014.0
20260504080558 47 200 0.0 2.0 0.00 0.00 0.00 62 1014.0